Location: Newark
(45.8667°N, 9.7333°E)
Time: 04:55:28
(UTC+00:00)

Transit 4A - Pass Details

Date: 31 January 2020
Orbit: 872 x 973 km, 66.8° (Epoch: 17 February)

Event Time Altitude Azimuth Distance (km) Brightness Sun altitude
Rises 14:13:34 0° 319° (NW) 3,470 10.8 17.2°
Reaches altitude 10° 14:16:17 10° 310° (NW) 2,529 10.3 16.9°
Maximum altitude 14:21:21 32° 249° (WSW) 1,471 10.2 16.3°
Drops below altitude 10° 14:26:27 10° 189° (S) 2,543 11.3 15.7°
Sets 14:29:12 0° 179° (S) 3,491 11.6 15.4°
